Regional Weather Roundup
Issued by NWS Little Rock, AR

Home | Current Version | Previous Version | Text Only | Print | Product List | Glossary Off
Versions: 1 2 3 4 5 6 7 8 9 10 11 12 13 14 15 16 17 18 19 20 21 22 23 24 25 26 27 28 29 30 31 32

000
ASUS44 KLZK 261005
RWRLZK

WEATHER ROUNDUP FOR ARKANSAS
NATIONAL WEATHER SERVICE LITTLE ROCK AR
500 AM CDT WED APR 26 2017

NOTE: "FAIR" INDICATES FEW OR NO CLOUDS BELOW 12,000 FEET WITH NO
SIGNIFICANT WEATHER AND/OR OBSTRUCTIONS TO VISIBILITY.

ARZ001-003-010-029-261100-
NORTHWEST ARKANSAS

CITY           SKY/WX    TMP DP  RH WIND       PRES   REMARKS
FAYETTEVILLE   TSTM      59  59 100 VRB3      29.51R FOG
FORT SMITH     CLOUDY    65  62  90 E9        29.46F
HARRISON       LGT RAIN  58  57  97 SE12      29.54F
BENTONVILLE    CLOUDY    57  55  94 CALM      29.49S
SILOAM SPGS    CLOUDY    57  54  88 CALM      29.48F
HIGHFILL       CLOUDY    59  58  96 CALM      29.49S
$$

ARZ004-005-016-261100-
NORTH CENTRAL ARKANSAS

CITY           SKY/WX    TMP DP  RH WIND       PRES   REMARKS
BATESVILLE     CLOUDY   N/A N/A N/A S5        29.59S
FLIPPIN        CLOUDY   N/A N/A N/A SE6       29.56S
MTN HOME       LGT RAIN  59  58  96 S7        29.59S
$$

ARZ040-041-261100-
WEST CENTRAL ARKANSAS

CITY           SKY/WX    TMP DP  RH WIND       PRES   REMARKS
MENA           CLOUDY    72  72 100 S5        29.53R
MOUNT IDA      LGT RAIN  73  64  73 VRB3      29.51R
$$

ARZ009-017-025-026-028-261100-
NORTHEAST ARKANSAS

CITY           SKY/WX    TMP DP  RH WIND       PRES   REMARKS
JONESBORO      CLOUDY    71  60  68 S10       29.60R
NEWPORT        CLOUDY    70  62  76 MISG      29.61R
WALNUT RIDGE   CLOUDY    66  57  72 S9        29.59F
BLYTHEVILLE    MOCLDY    64  58  80 S7        29.62R
$$

ARZ022-023-033-042-044-261100-
CENTRAL ARKANSAS

CITY           SKY/WX    TMP DP  RH WIND       PRES   REMARKS
LITTLE ROCK    CLOUDY    70  65  84 S5        29.57R
N LITTLE ROCK    N/A     70  64  80 S6        29.57R
JACKSONVILLE   CLOUDY    72  64  77 CALM      29.57R
CONWAY           N/A     72  64  78 SE6       29.55S
SEARCY         CLOUDY    70  64  81 S6        29.60R
HOT SPRINGS    CLOUDY    72  66  81 SE3       29.54S
RUSSELLVILLE   CLOUDY    72  64  76 VRB6      29.52F
$$

ARZ036-261100-
EAST ARKANSAS

CITY           SKY/WX    TMP DP  RH WIND       PRES   REMARKS
WEST MEMPHIS   CLOUDY    65  59  81 S9        29.62R
$$

ARZ050-053-066-070-073-261100-
SOUTHWEST ARKANSAS

CITY           SKY/WX    TMP DP  RH WIND       PRES   REMARKS
ARKADELPHIA      N/A     70  66  87 CALM      29.54F
CAMDEN         CLOUDY    72  63  73 SE7       29.54F
TEXARKANA      CLOUDY    69  67  93 S9        29.49F
EL DORADO      CLOUDY    71  66  84 S9        29.54R
$$

ARZ056-057-069-261100-
SOUTHEAST ARKANSAS

CITY           SKY/WX    TMP DP  RH WIND       PRES   REMARKS
PINE BLUFF     CLOUDY    69  62  78 SE8       29.58R
STUTTGART      CLOUDY    70  55  60 SE10      29.60R
MONTICELLO     MOCLDY    68  62  81 SE7       29.58S

$$






USA.gov is the U.S. government's official web portal to all federal, state and local government web resources and services.